Welcome to American Weather
  • Announcements

    • Wow

      New Tropical Forums   08/25/2016

      It is with great pleasure that I announce the creation of a new forum to the board dedicated to tropical weather discussions.  We will be encouraging all tropical related discussions in this forum to promote a stronger community and more robust discussion.
Sign in to follow this  
Followers 0
WeatherFox

February 8th-9th Snowstorm/Blizzard Event Observations

3,020 posts in this topic

A little early, no? And in recent years we do! lol

 

:) got to be prepared.   Be safe everyone!  First flakes do to start after midnight..

 

 

REGIONAL WEATHER ROUNDUPNATIONAL WEATHER SERVICE NEW YORK NY400 PM EST THU FEB 07 2013NOTE: "FAIR" INDICATES FEW OR NO CLOUDS BELOW 12,000 FEET WITH NOSIGNIFICANT WEATHER AND/OR OBSTRUCTIONS TO VISIBILITY.NYZ071-072-176-178-NJZ106-104-072200-NEW YORK CITY METRO AREACITY           SKY/WX    TMP DP  RH WIND       PRES   REMARKSCENTRAL PARK   CLOUDY    31  10  41 NE7       30.45F WCI  24LAGUARDIA APRT CLOUDY    31   9  39 NE10      30.43F WCI  22KENNEDY INTL   CLOUDY    32   7  35 SE10      30.44F WCI  24NEWARK/LIBERTY CLOUDY    33  10  38 E7        30.43F WCI  27TETERBORO      CLOUDY    31   8  38 E6        30.42F WCI  25WHITE PLAINS   CLOUDY    29   6  38 SE8       30.40F WCI  21$$NYZ177-179-078>081-072200-LONG ISLAND NEW YORKCITY           SKY/WX    TMP DP  RH WIND       PRES   REMARKSFARMINGDALE    CLOUDY    32   9  38 E7        30.44F WCI  26ISLIP          CLOUDY    31   7  36 SE8       30.43F WCI  23SHIRLEY        CLOUDY    32  12  43 SE5       30.46S WCI  27WESTHAMPTON    CLOUDY    31  11  43 E5        30.47S WCI  26MONTAUK POINT    N/A     31  11  43 E5        30.48S WCI  26$$

Share this post


Link to post
Share on other sites


REGIONAL WEATHER ROUNDUP

NATIONAL WEATHER SERVICE NEW YORK NY

700 PM EST THU FEB 07 2013

NOTE: "FAIR" INDICATES FEW OR NO CLOUDS BELOW 12,000 FEET WITH NO

SIGNIFICANT WEATHER AND/OR OBSTRUCTIONS TO VISIBILITY.

NYZ071-072-176-178-NJZ106-104-080100-

NEW YORK CITY METRO AREA

CITY SKY/WX TMP DP RH WIND PRES REMARKS

CENTRAL PARK MOCLDY 30 13 49 VRB7 30.44R WCI 23

LAGUARDIA APRT MOCLDY 31 14 49 E8 30.43R WCI 23

KENNEDY INTL MOCLDY 30 16 56 NE8 30.44R WCI 22

NEWARK/LIBERTY CLOUDY 32 16 51 E7 30.43R WCI 26

TETERBORO MOCLDY 30 11 45 NE5 30.42R WCI 25

WHITE PLAINS PTCLDY 26 10 50 VRB3 30.40S

$$

NYZ177-179-078>081-080100-

LONG ISLAND NEW YORK

CITY SKY/WX TMP DP RH WIND PRES REMARKS

FARMINGDALE MOCLDY 29 14 53 E6 30.43S WCI 23

ISLIP MOCLDY 29 15 56 E6 30.41F WCI 23

SHIRLEY MOCLDY 30 16 56 VRB3 30.44S

WESTHAMPTON MOCLDY 31 16 54 E5 30.45F WCI 26

MONTAUK POINT N/A 31 14 49 E3 30.47S

$$

Share this post


Link to post
Share on other sites


Air pressure now steady after rising the past hour. Air continues to moisten as dew dew point and

relative humidity readings have risen over the past several hours.

REGIONAL WEATHER ROUNDUP

NATIONAL WEATHER SERVICE NEW YORK NY

800 PM EST THU FEB 07 2013

NOTE: "FAIR" INDICATES FEW OR NO CLOUDS BELOW 12,000 FEET WITH NO

SIGNIFICANT WEATHER AND/OR OBSTRUCTIONS TO VISIBILITY.

NYZ071-072-176-178-NJZ106-104-080200-

NEW YORK CITY METRO AREA

CITY SKY/WX TMP DP RH WIND PRES REMARKS

CENTRAL PARK MOCLDY 30 15 53 E8 30.44S WCI 22

LAGUARDIA APRT MOCLDY 31 15 52 NE8 30.43S WCI 23

KENNEDY INTL CLOUDY 31 17 56 NE7 30.44S WCI 24

NEWARK/LIBERTY CLOUDY 32 19 58 NE6 30.42F WCI 26

TETERBORO MOCLDY 30 14 51 CALM 30.43R

WHITE PLAINS PTCLDY 26 12 55 CALM 30.40S

$$

NYZ177-179-078>081-080200-

LONG ISLAND NEW YORK

CITY SKY/WX TMP DP RH WIND PRES REMARKS

FARMINGDALE MOCLDY 29 16 58 E6 30.43S WCI 23

ISLIP MOCLDY 28 16 60 E6 30.42R WCI 22

SHIRLEY MOCLDY 28 16 60 CALM 30.45R

WESTHAMPTON MOCLDY 31 18 58 E5 30.45S WCI 26

MONTAUK POINT N/A 31 14 49 VRB6 30.47S WCI 25

$$

Share this post


Link to post
Share on other sites


REGIONAL WEATHER ROUNDUP

NATIONAL WEATHER SERVICE NEW YORK NY

1000 PM EST THU FEB 07 2013

NOTE: "FAIR" INDICATES FEW OR NO CLOUDS BELOW 12,000 FEET WITH NO

SIGNIFICANT WEATHER AND/OR OBSTRUCTIONS TO VISIBILITY.

NYZ071-072-176-178-NJZ106-104-080400-

NEW YORK CITY METRO AREA

CITY SKY/WX TMP DP RH WIND PRES REMARKS

CENTRAL PARK CLOUDY 31 18 58 E8 30.42F WCI 23

LAGUARDIA APRT CLOUDY 31 17 56 NE10 30.41F WCI 22

KENNEDY INTL CLOUDY 32 20 61 NE9 30.41F WCI 24

NEWARK/LIBERTY CLOUDY 33 22 63 NE7 30.39F WCI 27

TETERBORO CLOUDY 30 17 58 NE5 30.40F WCI 25

WHITE PLAINS CLOUDY 27 16 63 E5 30.38F WCI 22

$$

NYZ177-179-078>081-080400-

LONG ISLAND NEW YORK

CITY SKY/WX TMP DP RH WIND PRES REMARKS

FARMINGDALE CLOUDY 29 19 66 NE5 30.40F WCI 24

ISLIP CLOUDY 29 18 63 NE8 30.39F WCI 21

SHIRLEY CLOUDY 28 18 66 CALM 30.42F

WESTHAMPTON CLOUDY 33 21 61 E8 30.44F WCI 26

MONTAUK POINT N/A 31 18 58 E6 30.47R WCI 25

$$

Share this post


Link to post
Share on other sites

Was 26 here earlier this evening.  It rose to 31 about an hour ago, but hasn't budged since.  I'm liking the north shore for this one by later tomorrow afternoon.

Share this post


Link to post
Share on other sites

Coast should expect a mix and even heavy rain, IMO, through about 4-7pm.

After that is the show.

Hope the euro and hi-res models which have 1"+ of liquid after that are correct. If they are, we all get 12"+.

If the gfs/ggem/ukie are right, we get 4"-8".

If we switch before 4pm, then it's possible we get 20".

Share this post


Link to post
Share on other sites

Create an account or sign in to comment

You need to be a member in order to leave a comment

Create an account

Sign up for a new account in our community. It's easy!


Register a new account

Sign in

Already have an account? Sign in here.


Sign In Now
Sign in to follow this  
Followers 0

  • Recently Browsing   0 members

    No registered users viewing this page.